SCP
-0 0 0 0 0 0 0 0 0 0 0 0 0 0 0 0 0 0 0 0 0 0 0 0 0 0 0 0 0 -0 -0 0 0 -0 -0 -0 0 0 0 0 0 0 0 0 0 0 0 0 0
0 0 0 0 0 0 0 0 0 0 0 0 0 0 0 0 0 0 0 0 0 0 0 0 0 0 0 0 0 0 0 0 0 0 0 0 0 0 0 0 0 0 0 0 0 0 0 0 0
0 0 0 0 0 0 0 0 0 0 0 0 0 0 0 0 0 0 0 0 0 0 0 0 0 0 0 0 0 0 0 0 0 0 0 0 0 0 0 0 0 0 0 0 0 0 0 0 0
0 0 0 0 0 0 0 0 0 0 0 0 0 0 0 0 0 0 0 0 0 0 0 0 0 0 0 0 0 0 0 0 0 0 0 0 0 0 0 0 0 0 0 0 0 0 0 0 0
0 0 0 0 0 0 0 0 0 0 0 0 0 0 0 0 0 0 0 0 0 0 0 0 0 0 0 0 0 0 0 0 0 0 0 0 0 0 0 0 0 0 0 0 0 0 0 0 0
0 0 0 0 0 0 0 0 0 0 0 0 0 0 0 0 0 0 0 0 0 0 0 0 0 0 0 0 0 0 0 0 0 0 0 0 0 0 0 0 0 0 0 0 0 0 0 0 0
0 0 0 0 0 0 0 0 0 0 0 0 0 0 0 0 0 0 0 0 0 0 0 0 0 0 0 0 0 0 0 0 0 0 0 0 0 0 0 0 0 0 0 0 0 0 0 0 0
0 0 0 0 0 0 0 0 0 0 0 0 0 0 0 0 0 0 0 0 0 0 0 0 0 0 0 0 0 0 0 0 0 0 0 0 0 0 0 0 0 0 0 0 0 0 0 0 0
0 0 0 0 0 0 0 0 0 0 0 0 0 0 0 0 0 0 0 0 0 0 0 0 0 0 0 0 0 0 0 0 0 0 0 0 0 0 0 0 0 0 0 0 0 0 0 0 0
0 0 0 0 0 0 0 0 0 0 0 0 0 0 0 0 0 0 0 0 0 0 0 0 0 0 0 0 0 0 0 0 0 0 0 0 0 0 0 0 0 0 0 0 0 0 0 0 0
0 0 0 0 0 0 0 0 0 0 0 0 0 0 0 0 0 0 0 0 0 0 0 0 0 0 0 0 0 0 0 0 0 0 0 0 0 0 0 0 0 0 0 0 0 0 0 0 0
0 0 0 0 0 0 0 0 0 0 0 0 0 0 0 0 0 0 0 0 0 0 0 0 0 0 0 0 0 0 0 0 0 0 0 0 0 0 0 0 0 0 0 0 0 0 0 0 0
0 0 0 0 0 0 0 0 0 0 0 0 0 0 0 0 0 0 0 0 0 0 0 0 0 0 0 0 0 0 0 0 0 0 0 0 0 0 0 0 0 0 0 0 0 0 0 0 0
0 0 0 0 0 0 0 0 0 0 0 0 0 0 0 0 0 0 0 0 0 0 0 0 0 0 0 0 0 0 0 0 0 0 0 0 0 0 0 0 0 0 0 0 0 0 0 0 0
0 0 0 0 0 0 0 0 0 0 0 0 0 0 0 0 0 0 0 0 0 0 0 0 0 0 0 0 0 0 0 0 0 -0 -0 0 0 0 0 0 0 0 0 0 0 0 0 0 0
0 0 0 0 0 0 0 0 0 0 0 0 0 0 0 0 0 0 0 0 0 0 0 0 0 0 0 0 0 0 0 0 0 -0 -0 0 0 0 0 0 0 0 0 0 0 0 0 0 0
0 0 0 0 0 0 0 0 0 0 0 0 0 0 0 0 0 0 0 0 0 0 0 0 0 0 0 0 0 0 0 0 0 0 0 0 0 0 0 0 0 0 0 0 0 0 0 0 0
0 0 0 0 0 0 0 0 0 0 0 0 0 0 0 0 0 0 0 0 0 0 0 0 0 0 0 0 0 0 0 0 0 0 0 0 0 0 0 0 0 0 0 0 0 0 0 0 0
0 0 0 0 0 0 0 0 0 0 0 0 0 0 0 0 0 0 0 0 0 0 0 0 0 0 0 0 0 0 0 0 0 0 0 0 0 0 0 0 0 0 0 0 0 0 0 0 0
0 0 0 0 0 0 0 0 0 0 0 0 0 0 0 0 0 0 0 0 0 0 0 0 0 0 0 0 0 0 0 0 0 0 0 0 0 0 0 0 0 0 0 0 0 0 0 0 0
0 0 0 0 0 0 0 0 0 0 0 0 0 0 0 0 0 0 0 0 0 0 0 0 0 0 0 0 0 0 0 0 0 0 0 0 0 0 0 0 0 0 0 0 0 0 0 0 0
0 0 0 0 0 0 0 0 0 0 0 0 0 0 0 0 0 0 0 0 0 0 0 0 0 0 0 0 0 0 0 0 0 0 0 0 0 0 0 0 0 0 0 0 0 0 0 0 0
0 0 0 0 0 0 0 0 0 0 0 0 0 0 0 0 0 0 0 0 0 0 0 0 0 0 0 0 0 0 0 0 0 0 0 0 0 0 0 0 0 0 0 0 0 0 0 0 0
0 0 0 0 0 0 0 0 0 0 0 0 0 0 0 0 0 0 0 0 0 0 0 0 0 0 0 0 0 0 0 0 0 0 0 0 0 0 0 0 0 0 0 0 0 0 0 0 0
0 0 0 0 0 0 0 0 0 0 0 0 0 0 0 0 0 0 0 0 0 0 0 0 0 0 0 0 0 0 0 0 0 0 0 0 0 0 0 0 0 0 0 0 0 0 0 0 0
0 0 0 0 0 0 0 0 0 0 0 0 0 0 -0 0 0 0 0 0 0 0 0 0 0 0 0 0 0 0 0 0 0 0 0 0 0 0 0 0 0 0 0 0 0 0 0 0 0
0 0 0 0 0 0 0 0 0 0 0 0 0 0 0 0 0 0 0 0 0 0 0 0 0 0 0 0 0 0 0 0 0 0 0 0 0 0 0 0 0 0 0 0 0 0 0 0 0
0 0 0 0 0 0 0 0 0 0 0 0 0 0 0 0 0 0 -0 0 0 0 0 0 0 0 0 0 0 0 0 0 0 0 0 0 0 0 0 0 0 0 0 0 0 0 0 0 0
0 0 0 0 0 0 0 0 0 0 -0 -0 0 0 0 0 0 0 -0 0 0 0 -0 -0 0 0 0 0 0 0 0 0 0 0 0 0 0 0 0 0 0 0 0 0 0 0 0 0 0
0 0 0 0 0 0 0 0 0 0 0 -0 -0 -0 -0 0 0 0 0 0 0 -0 0 0 0 0 0 0 0 0 0 0 0 0 0 0 0 0 0 0 0 0 0 0 0 0 0 0 0
Wind_Speed_500mb
8 12 8 9 11 11 23 22 21 9 7 2 4 8 8 9 5 3 23 25 26 24 18 18 13 10 8 6 5 3 3 4 5 8 13 15 14 18 24 27 28 26 29 30 28 31 32 32 31
14 15 8 9 13 21 19 23 15 16 8 7 8 8 9 4 11 21 24 29 27 26 21 21 13 7 2 3 6 8 8 7 10 12 13 13 16 20 22 26 28 29 27 32 33 32 34 34 34
18 18 15 9 17 26 20 7 11 5 4 10 10 5 4 8 11 28 19 34 30 28 25 20 15 9 6 8 12 14 17 19 17 16 17 17 20 16 27 24 24 30 29 30 34 34 35 35 37
9 9 13 14 28 21 16 5 6 8 10 10 9 9 6 12 19 17 29 33 29 30 26 21 16 13 13 15 18 22 24 25 26 26 24 23 23 25 25 25 27 29 34 35 35 38 39 38 39
11 10 16 18 29 27 8 18 13 15 11 14 16 6 4 10 17 24 30 29 25 28 25 21 17 16 18 20 23 26 31 32 32 33 32 30 29 31 32 25 26 35 35 38 41 41 42 41 42
15 10 16 23 28 20 9 21 21 22 22 10 12 15 6 14 23 26 27 26 26 26 24 21 19 19 21 24 27 31 35 36 37 37 38 36 34 36 38 36 31 29 37 39 41 45 48 48 47
21 14 27 29 29 28 20 4 22 21 26 24 8 15 7 19 27 30 28 27 28 27 25 24 23 24 26 28 31 32 33 32 32 34 34 34 37 37 41 43 42 38 37 40 45 47 47 51 53
14 9 19 14 19 24 9 5 7 19 22 9 8 11 13 23 31 29 29 27 28 29 28 27 26 25 28 32 30 30 30 31 31 31 32 34 34 37 41 45 47 48 45 44 44 48 53 54 54
7 12 19 25 15 6 2 9 7 6 16 11 16 10 9 24 30 28 27 27 29 32 31 29 27 28 29 31 31 32 30 30 30 31 31 34 36 38 38 42 46 49 51 53 51 51 51 55 58
15 12 17 13 12 14 9 14 12 10 21 32 28 21 21 26 28 31 30 29 30 28 31 30 28 28 29 30 33 33 31 31 33 35 37 36 36 40 42 43 44 48 52 53 56 57 54 53 53
12 13 14 11 14 15 18 20 19 15 25 33 31 35 31 33 33 33 32 29 28 25 29 30 30 30 29 32 33 34 34 36 37 38 40 44 47 46 43 46 48 47 48 52 57 59 60 58 56
13 29 25 13 9 10 17 18 17 31 51 10 8 16 33 35 36 36 33 31 28 27 29 35 33 30 29 28 28 29 31 34 39 45 49 50 51 53 55 54 51 51 51 50 51 57 59 63 63
25 22 20 25 24 26 29 34 30 44 45 37 25 20 27 32 34 32 31 30 32 31 30 34 32 31 30 30 30 30 31 34 39 44 49 54 55 57 57 57 57 55 53 53 54 54 57 62 66
10 19 31 28 32 23 21 31 12 37 30 30 44 40 34 36 34 32 33 34 33 32 35 38 34 33 32 33 34 34 38 42 47 51 54 53 53 53 54 55 54 54 53 52 54 56 56 58 63
14 19 25 28 19 15 12 23 32 43 34 25 25 32 37 40 34 36 33 31 31 31 37 38 35 35 33 35 39 41 44 49 54 59 60 55 48 46 48 51 50 49 49 54 54 53 54 57 57
11 12 14 12 8 5 7 28 10 5 9 19 21 27 31 29 32 29 29 27 28 34 38 39 40 38 38 41 42 43 47 53 57 58 56 50 46 43 41 42 43 44 49 49 49 48 50 53 55
15 17 23 18 4 3 15 23 9 4 17 26 31 24 24 22 20 22 26 28 31 32 35 38 38 39 42 42 45 48 50 52 53 52 51 45 42 39 39 40 40 41 44 45 47 48 47 48 51
17 20 23 21 5 11 27 45 40 54 51 47 47 39 39 38 27 22 22 24 30 33 36 38 37 40 42 44 46 47 47 47 51 52 48 44 44 42 39 37 37 37 37 40 46 49 50 50 53
17 24 32 33 32 18 32 40 39 46 48 44 46 39 33 29 21 18 24 29 31 31 31 35 35 38 41 42 44 46 49 53 53 46 45 44 40 39 40 36 37 37 35 34 35 43 46 53 47
16 24 28 23 11 6 28 46 49 46 35 22 15 9 4 9 7 16 18 20 22 24 29 29 31 35 38 40 44 49 53 51 46 41 37 36 39 40 40 40 43 44 44 45 41 37 43 48 37
17 20 24 27 29 30 25 30 12 6 9 11 11 13 12 10 9 9 10 11 16 17 21 27 31 34 37 43 47 47 44 38 31 28 32 35 39 41 41 42 45 45 41 43 41 39 42 47 44
13 8 10 16 15 11 10 17 26 12 10 6 11 12 11 10 8 2 5 11 15 19 26 30 33 36 40 42 41 38 36 33 29 35 34 36 37 38 41 44 42 42 40 38 42 37 41 43 53
5 10 13 13 14 19 11 10 9 6 13 14 14 13 10 6 4 7 12 19 23 26 29 32 36 38 39 39 36 33 32 31 33 32 33 32 33 35 38 41 42 45 48 53 51 52 48 50 54
10 12 18 7 7 10 2 9 7 9 5 14 14 12 9 10 13 14 19 23 24 27 27 29 30 32 33 31 30 31 31 32 32 31 32 30 30 30 31 34 37 42 44 48 53 54 53 54 58
4 8 5 7 7 5 4 9 13 6 5 8 9 15 20 16 15 15 17 18 19 20 21 25 27 27 26 27 27 29 29 28 30 28 29 32 32 29 27 31 35 37 39 39 44 52 53 53 58
2 3 7 11 7 10 7 10 3 4 2 9 11 18 19 19 16 17 19 18 19 22 22 24 24 22 26 25 26 25 27 27 27 27 30 33 34 31 30 33 33 33 37 39 44 50 54 57 57
6 7 5 8 3 6 8 8 8 8 10 7 19 22 24 22 22 23 21 19 19 19 20 22 21 24 22 24 27 27 29 27 28 26 30 28 30 31 29 29 31 33 37 40 44 50 55 59 60
7 4 4 7 7 8 8 10 8 13 6 21 17 26 27 24 22 20 19 17 18 18 18 18 20 22 22 24 25 26 26 25 26 26 26 25 29 28 26 25 29 33 37 40 43 46 48 55 62
7 7 8 4 6 7 8 3 4 19 7 15 18 25 29 30 28 23 20 20 19 17 16 16 19 19 20 23 25 22 20 22 23 25 26 27 29 29 29 28 30 36 40 43 46 45 44 48 50
6 5 10 7 8 4 6 8 4 7 3 14 26 34 38 32 29 27 22 21 20 17 15 16 15 18 21 24 21 19 19 20 23 24 27 29 27 28 31 34 37 40 42 41 42 40 41 41 38
Wind_Direction_500mb
158 152 166 192 230 235 259 242 255 227 224 164 336 247 268 27 265 2 144 151 144 152 151 158 144 122 101 76 70 44 354 289 283 220 249 244 244 245 245 236 228 234 230 231 235 233 230 227 227
158 152 180 240 250 235 256 216 214 248 79 159 173 228 244 174 69 129 139 151 152 157 169 164 159 152 111 9 350 334 320 306 297 298 273 283 258 254 253 246 241 229 228 230 233 235 235 231 229
160 157 236 234 239 247 269 69 279 87 184 204 198 234 333 95 117 145 165 161 163 171 183 181 186 204 251 291 306 308 306 303 296 286 284 282 271 277 257 253 242 240 230 227 230 235 238 236 234
150 201 245 249 254 257 282 344 326 177 202 215 241 216 108 155 152 168 163 164 173 186 194 199 214 235 260 278 289 295 295 292 290 289 283 271 268 270 264 261 252 240 235 236 231 234 241 237 231
177 243 246 241 260 271 283 280 268 245 239 216 203 216 143 178 165 164 165 169 181 195 203 210 230 249 266 279 289 293 294 293 290 285 279 275 268 262 265 262 255 244 243 238 238 239 239 243 238
206 260 245 251 262 255 245 270 255 252 243 209 219 240 157 196 176 171 177 181 195 208 219 232 246 265 277 287 292 294 296 293 289 285 280 276 269 264 261 262 258 256 249 246 243 244 244 246 244
254 234 258 269 278 276 270 244 239 251 248 227 266 238 156 191 181 184 185 196 206 216 226 238 251 262 273 285 293 296 297 296 294 290 287 282 277 270 264 262 259 254 254 252 248 248 247 247 245
252 262 261 253 269 290 96 221 278 260 255 166 196 235 212 192 183 183 192 200 212 221 231 242 253 266 282 290 294 299 301 299 295 291 288 284 281 277 272 265 264 262 256 253 253 250 250 250 249
240 246 255 259 277 319 132 244 193 261 245 224 218 253 189 169 187 188 196 205 216 227 234 244 258 276 289 296 302 302 300 297 297 296 292 289 289 284 279 274 269 265 262 258 256 255 254 251 252
227 246 273 355 314 284 294 274 291 258 232 233 228 222 217 193 200 205 209 215 221 230 239 245 261 278 289 296 303 305 305 302 299 298 299 298 292 289 288 283 277 272 268 265 261 258 256 255 252
204 246 5 275 286 288 286 272 245 258 259 248 240 232 220 207 212 215 221 219 223 218 237 246 262 270 278 290 297 301 305 308 307 302 299 298 300 297 292 288 286 280 274 268 265 262 258 256 253
258 246 273 283 282 272 261 281 251 245 250 299 313 248 207 210 216 220 222 222 216 215 233 249 257 262 273 281 283 288 296 303 307 308 307 302 296 294 295 293 289 286 283 277 271 265 262 258 257
243 269 276 267 268 265 270 259 267 266 261 257 249 230 210 218 223 226 225 222 217 223 228 247 253 262 274 280 284 291 299 307 314 316 313 306 300 296 292 289 289 288 285 282 278 272 266 263 259
336 289 277 277 267 264 259 272 269 260 269 255 247 243 239 232 230 226 220 216 216 223 231 244 249 261 276 282 285 291 299 306 313 317 316 308 299 295 293 290 288 286 285 282 278 277 274 269 264
281 289 281 250 255 259 280 256 234 265 267 258 257 248 242 237 232 228 223 218 220 226 231 243 254 264 274 280 283 289 296 304 310 313 313 308 297 289 286 286 287 287 284 284 283 280 278 277 274
265 258 286 110 157 157 225 274 271 52 297 266 261 253 242 236 229 220 215 217 214 225 238 245 253 264 275 281 283 289 296 302 307 310 310 304 298 292 285 280 278 280 282 286 286 285 281 278 275
205 284 286 302 140 295 227 294 313 254 295 278 279 263 239 224 215 218 219 222 224 227 234 247 255 265 273 280 288 293 298 302 306 307 305 301 297 294 289 287 284 280 279 280 278 276 277 280 278
313 289 290 275 193 242 274 271 275 276 275 274 271 263 251 244 243 234 216 210 219 228 240 248 258 267 274 283 289 294 299 304 305 305 300 296 296 295 292 288 288 285 281 279 283 284 280 276 273
293 285 285 285 292 289 273 283 286 281 277 269 264 259 254 246 228 196 231 221 227 236 245 250 260 270 278 285 292 295 301 304 304 298 295 295 293 290 292 291 286 291 286 282 280 283 286 283 283
272 277 282 295 33 298 290 291 283 279 282 300 303 293 254 183 204 193 201 211 223 236 246 259 267 274 282 289 294 301 303 302 300 300 301 300 295 290 288 286 282 281 280 276 279 280 282 285 283
269 269 290 298 317 274 291 280 252 147 122 92 90 94 99 128 151 170 192 211 231 242 252 260 267 278 289 296 301 301 299 303 305 301 291 293 292 293 290 285 285 285 280 278 274 281 285 285 284
287 19 305 297 321 304 1 292 288 299 97 111 117 103 84 77 86 161 241 256 256 251 261 271 278 287 293 295 297 296 297 297 291 290 292 293 293 292 290 287 286 283 276 273 272 279 281 277 275
299 318 292 301 283 323 253 245 283 131 87 88 79 82 75 47 1 295 275 266 263 268 272 278 286 290 293 295 295 298 298 295 293 295 296 296 295 290 290 289 284 276 274 269 272 272 272 273 271
301 293 270 296 274 250 108 247 329 21 42 78 70 61 35 342 321 304 287 281 276 279 281 283 289 294 293 297 300 301 295 294 293 294 293 294 292 295 298 297 291 285 281 278 272 269 267 273 271
31 317 277 226 197 288 149 227 317 60 50 6 346 352 342 327 312 303 285 274 277 280 282 288 291 288 293 291 293 290 289 291 294 296 296 292 295 309 313 301 293 290 286 281 273 273 271 274 274
315 285 284 286 293 333 147 245 128 72 342 297 308 322 330 335 321 308 289 283 275 274 282 286 285 292 287 293 292 293 295 294 292 294 291 297 314 314 312 307 304 302 298 292 285 280 274 272 271
130 214 55 286 155 259 230 224 110 112 50 338 349 345 346 336 326 309 307 290 275 289 289 286 293 287 292 295 296 296 291 292 292 292 295 309 308 309 309 307 302 301 294 291 287 286 283 278 274
246 358 215 186 270 255 221 249 185 147 32 351 350 350 340 333 319 305 299 293 294 293 288 290 292 294 299 301 298 294 292 294 295 297 301 303 299 301 301 298 297 300 297 295 290 287 283 277 272
175 208 221 305 256 284 306 107 291 137 89 332 326 330 323 320 321 315 312 309 303 296 295 301 298 305 309 307 305 303 300 296 302 300 300 300 302 304 300 299 299 299 297 294 290 290 289 284 277
285 284 217 243 168 245 318 276 33 98 327 305 315 325 324 307 310 326 322 315 309 305 313 310 312 315 317 316 313 311 304 304 302 302 301 300 302 307 310 308 305 299 296 295 295 296 295 289 279
Wind_Speed_850mb
8 12 8 9 11 11 23 22 21 9 7 2 4 8 8 9 5 3 23 25 26 24 18 18 13 10 8 6 5 3 3 4 5 8 13 15 14 18 24 27 28 26 29 30 28 31 32 32 31
14 15 8 9 13 21 19 23 15 16 8 7 8 8 9 4 11 21 24 29 27 26 21 21 13 7 2 3 6 8 8 7 10 12 13 13 16 20 22 26 28 29 27 32 33 32 34 34 34
18 18 15 9 17 26 20 7 11 5 4 10 10 5 4 8 11 28 19 34 30 28 25 20 15 9 6 8 12 14 17 19 17 16 17 17 20 16 27 24 24 30 29 30 34 34 35 35 37
9 9 13 14 28 21 16 5 6 8 10 10 9 9 6 12 19 17 29 33 29 30 26 21 16 13 13 15 18 22 24 25 26 26 24 23 23 25 25 25 27 29 34 35 35 38 39 38 39
11 10 16 18 29 27 8 18 13 15 11 14 16 6 4 10 17 24 30 29 25 28 25 21 17 16 18 20 23 26 31 32 32 33 32 30 29 31 32 25 26 35 35 38 41 41 42 41 42
15 10 16 23 28 20 9 21 21 22 22 10 12 15 6 14 23 26 27 26 26 26 24 21 19 19 21 24 27 31 35 36 37 37 38 36 34 36 38 36 31 29 37 39 41 45 48 48 47
21 14 27 29 29 28 20 4 22 21 26 24 8 15 7 19 27 30 28 27 28 27 25 24 23 24 26 28 31 32 33 32 32 34 34 34 37 37 41 43 42 38 37 40 45 47 47 51 53
14 9 19 14 19 24 9 5 7 19 22 9 8 11 13 23 31 29 29 27 28 29 28 27 26 25 28 32 30 30 30 31 31 31 32 34 34 37 41 45 47 48 45 44 44 48 53 54 54
7 12 19 25 15 6 2 9 7 6 16 11 16 10 9 24 30 28 27 27 29 32 31 29 27 28 29 31 31 32 30 30 30 31 31 34 36 38 38 42 46 49 51 53 51 51 51 55 58
15 12 17 13 12 14 9 14 12 10 21 32 28 21 21 26 28 31 30 29 30 28 31 30 28 28 29 30 33 33 31 31 33 35 37 36 36 40 42 43 44 48 52 53 56 57 54 53 53
12 13 14 11 14 15 18 20 19 15 25 33 31 35 31 33 33 33 32 29 28 25 29 30 30 30 29 32 33 34 34 36 37 38 40 44 47 46 43 46 48 47 48 52 57 59 60 58 56
13 29 25 13 9 10 17 18 17 31 51 10 8 16 33 35 36 36 33 31 28 27 29 35 33 30 29 28 28 29 31 34 39 45 49 50 51 53 55 54 51 51 51 50 51 57 59 63 63
25 22 20 25 24 26 29 34 30 44 45 37 25 20 27 32 34 32 31 30 32 31 30 34 32 31 30 30 30 30 31 34 39 44 49 54 55 57 57 57 57 55 53 53 54 54 57 62 66
10 19 31 28 32 23 21 31 12 37 30 30 44 40 34 36 34 32 33 34 33 32 35 38 34 33 32 33 34 34 38 42 47 51 54 53 53 53 54 55 54 54 53 52 54 56 56 58 63
14 19 25 28 19 15 12 23 32 43 34 25 25 32 37 40 34 36 33 31 31 31 37 38 35 35 33 35 39 41 44 49 54 59 60 55 48 46 48 51 50 49 49 54 54 53 54 57 57
11 12 14 12 8 5 7 28 10 5 9 19 21 27 31 29 32 29 29 27 28 34 38 39 40 38 38 41 42 43 47 53 57 58 56 50 46 43 41 42 43 44 49 49 49 48 50 53 55
15 17 23 18 4 3 15 23 9 4 17 26 31 24 24 22 20 22 26 28 31 32 35 38 38 39 42 42 45 48 50 52 53 52 51 45 42 39 39 40 40 41 44 45 47 48 47 48 51
17 20 23 21 5 11 27 45 40 54 51 47 47 39 39 38 27 22 22 24 30 33 36 38 37 40 42 44 46 47 47 47 51 52 48 44 44 42 39 37 37 37 37 40 46 49 50 50 53
17 24 32 33 32 18 32 40 39 46 48 44 46 39 33 29 21 18 24 29 31 31 31 35 35 38 41 42 44 46 49 53 53 46 45 44 40 39 40 36 37 37 35 34 35 43 46 53 47
16 24 28 23 11 6 28 46 49 46 35 22 15 9 4 9 7 16 18 20 22 24 29 29 31 35 38 40 44 49 53 51 46 41 37 36 39 40 40 40 43 44 44 45 41 37 43 48 37
17 20 24 27 29 30 25 30 12 6 9 11 11 13 12 10 9 9 10 11 16 17 21 27 31 34 37 43 47 47 44 38 31 28 32 35 39 41 41 42 45 45 41 43 41 39 42 47 44
13 8 10 16 15 11 10 17 26 12 10 6 11 12 11 10 8 2 5 11 15 19 26 30 33 36 40 42 41 38 36 33 29 35 34 36 37 38 41 44 42 42 40 38 42 37 41 43 53
5 10 13 13 14 19 11 10 9 6 13 14 14 13 10 6 4 7 12 19 23 26 29 32 36 38 39 39 36 33 32 31 33 32 33 32 33 35 38 41 42 45 48 53 51 52 48 50 54
10 12 18 7 7 10 2 9 7 9 5 14 14 12 9 10 13 14 19 23 24 27 27 29 30 32 33 31 30 31 31 32 32 31 32 30 30 30 31 34 37 42 44 48 53 54 53 54 58
4 8 5 7 7 5 4 9 13 6 5 8 9 15 20 16 15 15 17 18 19 20 21 25 27 27 26 27 27 29 29 28 30 28 29 32 32 29 27 31 35 37 39 39 44 52 53 53 58
2 3 7 11 7 10 7 10 3 4 2 9 11 18 19 19 16 17 19 18 19 22 22 24 24 22 26 25 26 25 27 27 27 27 30 33 34 31 30 33 33 33 37 39 44 50 54 57 57
6 7 5 8 3 6 8 8 8 8 10 7 19 22 24 22 22 23 21 19 19 19 20 22 21 24 22 24 27 27 29 27 28 26 30 28 30 31 29 29 31 33 37 40 44 50 55 59 60
7 4 4 7 7 8 8 10 8 13 6 21 17 26 27 24 22 20 19 17 18 18 18 18 20 22 22 24 25 26 26 25 26 26 26 25 29 28 26 25 29 33 37 40 43 46 48 55 62
7 7 8 4 6 7 8 3 4 19 7 15 18 25 29 30 28 23 20 20 19 17 16 16 19 19 20 23 25 22 20 22 23 25 26 27 29 29 29 28 30 36 40 43 46 45 44 48 50
6 5 10 7 8 4 6 8 4 7 3 14 26 34 38 32 29 27 22 21 20 17 15 16 15 18 21 24 21 19 19 20 23 24 27 29 27 28 31 34 37 40 42 41 42 40 41 41 38
Wind_Direction_850mb
158 152 166 192 230 235 259 242 255 227 224 164 336 247 268 27 265 2 144 151 144 152 151 158 144 122 101 76 70 44 354 289 283 220 249 244 244 245 245 236 228 234 230 231 235 233 230 227 227
158 152 180 240 250 235 256 216 214 248 79 159 173 228 244 174 69 129 139 151 152 157 169 164 159 152 111 9 350 334 320 306 297 298 273 283 258 254 253 246 241 229 228 230 233 235 235 231 229
160 157 236 234 239 247 269 69 279 87 184 204 198 234 333 95 117 145 165 161 163 171 183 181 186 204 251 291 306 308 306 303 296 286 284 282 271 277 257 253 242 240 230 227 230 235 238 236 234
150 201 245 249 254 257 282 344 326 177 202 215 241 216 108 155 152 168 163 164 173 186 194 199 214 235 260 278 289 295 295 292 290 289 283 271 268 270 264 261 252 240 235 236 231 234 241 237 231
177 243 246 241 260 271 283 280 268 245 239 216 203 216 143 178 165 164 165 169 181 195 203 210 230 249 266 279 289 293 294 293 290 285 279 275 268 262 265 262 255 244 243 238 238 239 239 243 238
206 260 245 251 262 255 245 270 255 252 243 209 219 240 157 196 176 171 177 181 195 208 219 232 246 265 277 287 292 294 296 293 289 285 280 276 269 264 261 262 258 256 249 246 243 244 244 246 244
254 234 258 269 278 276 270 244 239 251 248 227 266 238 156 191 181 184 185 196 206 216 226 238 251 262 273 285 293 296 297 296 294 290 287 282 277 270 264 262 259 254 254 252 248 248 247 247 245
252 262 261 253 269 290 96 221 278 260 255 166 196 235 212 192 183 183 192 200 212 221 231 242 253 266 282 290 294 299 301 299 295 291 288 284 281 277 272 265 264 262 256 253 253 250 250 250 249
240 246 255 259 277 319 132 244 193 261 245 224 218 253 189 169 187 188 196 205 216 227 234 244 258 276 289 296 302 302 300 297 297 296 292 289 289 284 279 274 269 265 262 258 256 255 254 251 252
227 246 273 355 314 284 294 274 291 258 232 233 228 222 217 193 200 205 209 215 221 230 239 245 261 278 289 296 303 305 305 302 299 298 299 298 292 289 288 283 277 272 268 265 261 258 256 255 252
204 246 5 275 286 288 286 272 245 258 259 248 240 232 220 207 212 215 221 219 223 218 237 246 262 270 278 290 297 301 305 308 307 302 299 298 300 297 292 288 286 280 274 268 265 262 258 256 253
258 246 273 283 282 272 261 281 251 245 250 299 313 248 207 210 216 220 222 222 216 215 233 249 257 262 273 281 283 288 296 303 307 308 307 302 296 294 295 293 289 286 283 277 271 265 262 258 257
243 269 276 267 268 265 270 259 267 266 261 257 249 230 210 218 223 226 225 222 217 223 228 247 253 262 274 280 284 291 299 307 314 316 313 306 300 296 292 289 289 288 285 282 278 272 266 263 259
336 289 277 277 267 264 259 272 269 260 269 255 247 243 239 232 230 226 220 216 216 223 231 244 249 261 276 282 285 291 299 306 313 317 316 308 299 295 293 290 288 286 285 282 278 277 274 269 264
281 289 281 250 255 259 280 256 234 265 267 258 257 248 242 237 232 228 223 218 220 226 231 243 254 264 274 280 283 289 296 304 310 313 313 308 297 289 286 286 287 287 284 284 283 280 278 277 274
265 258 286 110 157 157 225 274 271 52 297 266 261 253 242 236 229 220 215 217 214 225 238 245 253 264 275 281 283 289 296 302 307 310 310 304 298 292 285 280 278 280 282 286 286 285 281 278 275
205 284 286 302 140 295 227 294 313 254 295 278 279 263 239 224 215 218 219 222 224 227 234 247 255 265 273 280 288 293 298 302 306 307 305 301 297 294 289 287 284 280 279 280 278 276 277 280 278
313 289 290 275 193 242 274 271 275 276 275 274 271 263 251 244 243 234 216 210 219 228 240 248 258 267 274 283 289 294 299 304 305 305 300 296 296 295 292 288 288 285 281 279 283 284 280 276 273
293 285 285 285 292 289 273 283 286 281 277 269 264 259 254 246 228 196 231 221 227 236 245 250 260 270 278 285 292 295 301 304 304 298 295 295 293 290 292 291 286 291 286 282 280 283 286 283 283
272 277 282 295 33 298 290 291 283 279 282 300 303 293 254 183 204 193 201 211 223 236 246 259 267 274 282 289 294 301 303 302 300 300 301 300 295 290 288 286 282 281 280 276 279 280 282 285 283
269 269 290 298 317 274 291 280 252 147 122 92 90 94 99 128 151 170 192 211 231 242 252 260 267 278 289 296 301 301 299 303 305 301 291 293 292 293 290 285 285 285 280 278 274 281 285 285 284
287 19 305 297 321 304 1 292 288 299 97 111 117 103 84 77 86 161 241 256 256 251 261 271 278 287 293 295 297 296 297 297 291 290 292 293 293 292 290 287 286 283 276 273 272 279 281 277 275
299 318 292 301 283 323 253 245 283 131 87 88 79 82 75 47 1 295 275 266 263 268 272 278 286 290 293 295 295 298 298 295 293 295 296 296 295 290 290 289 284 276 274 269 272 272 272 273 271
301 293 270 296 274 250 108 247 329 21 42 78 70 61 35 342 321 304 287 281 276 279 281 283 289 294 293 297 300 301 295 294 293 294 293 294 292 295 298 297 291 285 281 278 272 269 267 273 271
31 317 277 226 197 288 149 227 317 60 50 6 346 352 342 327 312 303 285 274 277 280 282 288 291 288 293 291 293 290 289 291 294 296 296 292 295 309 313 301 293 290 286 281 273 273 271 274 274
315 285 284 286 293 333 147 245 128 72 342 297 308 322 330 335 321 308 289 283 275 274 282 286 285 292 287 293 292 293 295 294 292 294 291 297 314 314 312 307 304 302 298 292 285 280 274 272 271
130 214 55 286 155 259 230 224 110 112 50 338 349 345 346 336 326 309 307 290 275 289 289 286 293 287 292 295 296 296 291 292 292 292 295 309 308 309 309 307 302 301 294 291 287 286 283 278 274
246 358 215 186 270 255 221 249 185 147 32 351 350 350 340 333 319 305 299 293 294 293 288 290 292 294 299 301 298 294 292 294 295 297 301 303 299 301 301 298 297 300 297 295 290 287 283 277 272
175 208 221 305 256 284 306 107 291 137 89 332 326 330 323 320 321 315 312 309 303 296 295 301 298 305 309 307 305 303 300 296 302 300 300 300 302 304 300 299 299 299 297 294 290 290 289 284 277
285 284 217 243 168 245 318 276 33 98 327 305 315 325 324 307 310 326 322 315 309 305 313 310 312 315 317 316 313 311 304 304 302 302 301 300 302 307 310 308 305 299 296 295 295 296 295 289 279